[[{"header":{"parameterUnit":"m.s-1","parameterCategory":1,"la1":30.2991,"la2":30.254,"lo1":-89.0895,"lo2":-89.0444,"dy":0.0017,"dx":0.0017,"nx":28,"ny":28,"refTime":"2024-10-13T21:00:00:Z","depth":0,"parameterNumber":2,"parameterNumberName":"U-component_of_WINDS"},"data":[0,0,0,0,0,0,0,0,0,0,0,0,0,0,0,0,0,0,0,0,0,0,0,0,0,0,0,0,0,0,0,0,0,0,0,0,0,0,0,0,0,0,0,0,0,0,0,0,0,0,0,0,0,0,0,0,0,0,1.7327,1.7328,0,1.7418,1.7419,1.742,1.7357,1.7355,1.7352,1.7349,1.7448,1.7453,1.7458,0,0,0,0,0,0,0,0,0,0,0,0,0,1.7107,1.7112,1.7327,1.7328,1.7329,1.7418,1.7419,1.742,1.7358,1.7354,1.7351,1.7348,1.7446,1.7452,1.7459,0,0,0,0,0,0,0,0,0,0,0,0,0,1.7201,1.7113,1.7327,1.7309,1.7308,1.7417,1.7419,1.742,1.7359,1.7354,1.735,1.7346,1.7444,1.7452,1.746,1.7593,0,0,1.7484,1.7487,0,0,0,0,0,0,0,0,1.7196,1.7209,1.731,1.731,1.731,1.7372,1.7378,1.7479,1.736,1.734,1.7349,1.7344,1.7426,1.7436,1.7462,1.7598,1.7602,1.7484,1.7489,1.7493,1.7495,0,0,0,0,0,0,0,1.7189,1.7205,1.7363,1.7312,1.7312,1.7299,1.7307,1.7396,1.7406,1.7341,1.7337,1.7348,1.7425,1.7455,1.7464,1.7604,1.7484,1.7491,1.7496,1.7499,1.7857,1.7861,0,0,0,0,0,0,1.7184,1.72,1.736,1.7366,1.7241,1.7306,1.7316,1.7356,1.7405,1.7408,1.7352,1.7345,1.7443,1.7455,1.7467,1.7627,1.7493,1.75,1.7504,1.7852,1.7858,1.7863,0,0,0,0,0,0,1.7179,1.7198,1.7357,1.7282,1.7301,1.7314,1.7361,1.736,1.7389,1.7413,1.7415,1.7379,1.744,1.7456,1.7562,1.763,1.7504,1.7511,1.7846,1.7854,1.786,1.7949,0,0,0,0,0,0,1.7173,1.7197,1.7246,1.7283,1.7305,1.7448,1.7365,1.7365,1.7402,1.7394,1.7439,1.7442,1.7438,1.7551,1.757,1.7639,1.7517,1.784,1.785,1.7858,1.794,1.7958,1.7974,0,0,0,0,0,1.7165,1.7268,1.7249,1.7269,1.7366,1.7452,1.7465,1.7456,1.7408,1.7458,1.7474,1.7441,1.762,1.7562,1.7584,1.7655,1.7836,1.7847,1.7857,1.7932,1.7955,1.7973,0,0,0,0,0,0,1.724,1.7273,1.7252,1.7369,1.7408,1.7441,1.7504,1.748,1.7535,1.7525,1.7514,1.7525,1.7637,1.7657,1.7592,1.7789,1.7721,1.7736,1.7771,1.7792,1.7808,1.7801,1.7523,0,0,0,0,0,1.727,1.7335,1.7361,1.7463,1.7483,1.7491,1.7528,1.7518,1.7559,1.7576,1.7599,1.7642,1.7708,1.7751,1.7813,1.7944,1.7953,1.8004,1.8021,1.8034,1.8048,1.8119,1.8142,1.7898,1.7898,1.7898,0,0,1.7333,1.7359,1.7401,1.7478,1.7507,1.7577,1.7505,1.7582,1.7634,1.7588,1.7689,1.7708,1.7756,1.7875,1.7929,1.7895,1.8118,1.8048,1.8059,1.8064,1.8133,1.8156,1.8177,1.7905,1.7904,1.7903,0,0,1.7483,1.7509,1.7596,1.7627,1.7672,1.7677,1.7698,1.7736,1.7746,1.7848,1.7815,1.7879,1.7992,1.8027,1.806,1.8227,1.8199,1.8248,1.8336,1.8406,1.8425,1.8442,1.8502,1.8523,1.8262,1.8262,1.8262,0,1.7555,1.7656,1.7645,1.7724,1.776,1.7721,1.7811,1.7843,1.7906,1.7933,1.7895,1.8037,1.8067,1.8194,1.8235,1.8263,1.8288,1.8242,1.8423,1.844,1.8456,1.8513,1.8535,1.8267,1.8267,1.8266,1.8266,0,1.7744,1.7816,1.7882,1.7942,1.7986,1.8071,1.8074,1.8121,1.8108,1.8118,1.8224,1.8258,1.8326,1.8356,1.8345,1.8484,1.8461,1.8424,1.8355,1.8485,1.8538,1.856,1.8275,1.8273,1.8272,1.827,0,0,1.794,1.7995,1.8019,1.8047,1.8095,1.8151,1.8236,1.8302,1.8342,1.8389,1.846,1.8558,1.8524,1.8562,1.8555,1.8617,1.8748,1.8572,1.8573,1.8603,1.8903,1.893,1.8955,1.873,1.8734,1.8738,1.8899,0,1.8092,1.8235,1.8229,1.8365,1.8432,1.8398,1.8472,1.8511,1.8524,1.8584,1.8599,1.8669,1.8618,1.8641,1.8701,1.8719,1.8808,1.8708,1.8798,1.8801,1.8785,1.8983,1.9011,1.9161,1.8919,1.8923,1.8926,0,1.8287,1.8338,1.8481,1.852,1.8548,1.8614,1.8675,1.8733,1.8778,1.8783,1.8826,1.8811,1.8899,1.8829,1.8952,1.8884,1.8921,1.8936,1.8942,1.8949,1.887,1.8994,1.9209,1.9231,1.8958,1.8956,1.8953,0,1.8415,1.8521,1.8619,1.8645,1.8694,1.8741,1.8764,1.8805,1.8846,1.89,1.8927,1.8992,1.9028,1.908,1.9083,1.9032,1.9207,1.9137,1.9214,1.9215,1.9251,1.9248,1.9473,1.9278,1.9277,1.9277,1.9276,0,1.8584,1.8672,1.8678,1.8738,1.8837,1.8831,1.893,1.8949,1.8986,1.9052,1.9028,1.9091,1.9091,1.9157,1.916,1.9262,1.9278,1.9286,1.9286,1.9287,1.9286,1.931,1.9299,1.9283,1.9282,1.928,1.9279,0,1.8742,1.8749,1.8855,1.8893,1.8905,1.8977,1.9011,1.907,1.9081,1.9165,1.9185,1.9203,1.9279,1.9288,1.9376,1.9379,1.9501,1.949,1.9485,1.9482,1.9559,1.9551,1.9806,1.9839,1.9623,1.9625,1.9627,0,1.8848,1.8915,1.8961,1.9003,1.9028,1.9096,1.9137,1.9135,1.918,1.9238,1.9291,1.9363,1.9421,1.9544,1.9567,1.9635,1.9625,1.971,1.9635,1.9635,1.9626,1.9621,1.9628,1.9724,1.9726,1.9728,1.973,0,1.9036,1.9037,1.9096,1.9159,1.9209,1.9258,1.9304,1.934,1.9345,1.9397,1.9472,1.9517,1.9608,1.9681,1.9749,1.9775,1.9754,1.9754,1.9775,1.9776,1.977,1.9774,1.9523,1.9747,1.9745,1.9744,1.9743,1.9742,1.9171,1.9229,1.9271,1.9339,1.9374,1.9418,1.9476,1.9495,1.9558,1.9629,1.9626,1.971,1.9757,1.9845,1.9877,1.9945,1.9917,1.9948,1.9955,1.9963,1.997,1.9761,1.9957,1.9957,1.9956,1.9956,1.9956,0,1.9357,1.9383,1.9445,1.951,1.9565,1.954,1.9591,1.9638,1.9712,1.9756,1.9814,1.9903,1.9974,2.0004,2.0075,2.0123,2.0116,2.0142,2.0138,2.0144,1.9991,1.9965,2.0147,2.0147,2.0147,2.0147,2.0147,2.0147,1.946,1.9557,1.9564,1.968,1.9706,1.9787,1.9818,1.986,1.9895,1.9995,2.0053,2.0072,2.0112,2.0185,2.0251,2.0258,2.0285,2.0316,2.0319,2.0174,2.0155,2.0136,2.0112,2.0322,2.0322,2.0466,2.0467,2.0468]},{"header":{"parameterUnit":"m.s-1","parameterCategory":1,"la1":30.2991,"la2":30.254,"lo1":-89.0895,"lo2":-89.0444,"dy":0.0017,"dx":0.0017,"nx":28,"ny":28,"refTime":"2024-10-13T21:00:00:Z","depth":0,"parameterNumber":3,"parameterNumberName":"V-component_of_WINDS"},"data":[0,0,0,0,0,0,0,0,0,0,0,0,0,0,0,0,0,0,0,0,0,0,0,0,0,0,0,0,0,0,0,0,0,0,0,0,0,0,0,0,0,0,0,0,0,0,0,0,0,0,0,0,0,0,0,0,0,0,1.9659,1.9659,0,1.973,1.9731,1.9731,1.9674,1.9672,1.967,1.9667,1.9742,1.9746,1.9751,0,0,0,0,0,0,0,0,0,0,0,0,0,1.9474,1.9478,1.9659,1.966,1.966,1.973,1.9731,1.9732,1.9675,1.9672,1.9669,1.9666,1.9741,1.9746,1.9751,0,0,0,0,0,0,0,0,0,0,0,0,0,1.9551,1.9479,1.9658,1.964,1.9639,1.9729,1.9731,1.9732,1.9675,1.9672,1.9668,1.9665,1.9739,1.9745,1.9752,1.9864,0,0,1.9771,1.9774,0,0,0,0,0,0,0,0,1.9547,1.9558,1.9642,1.9642,1.9641,1.9689,1.9693,1.9776,1.9676,1.9662,1.9667,1.9663,1.9728,1.9735,1.9756,1.9867,1.9871,1.9772,1.9776,1.9778,1.978,0,0,0,0,0,0,0,1.9542,1.9554,1.9687,1.9643,1.9643,1.9629,1.9636,1.9709,1.9714,1.9663,1.9659,1.9668,1.9727,1.975,1.9758,1.9872,1.9772,1.9777,1.9781,1.9784,2.0075,2.0079,0,0,0,0,0,0,1.9538,1.955,1.9685,1.9689,1.9584,1.9635,1.9643,1.9678,1.9713,1.9715,1.9671,1.9665,1.9741,1.975,1.976,1.9891,1.9778,1.9784,1.9788,2.0071,2.0076,2.008,0,0,0,0,0,0,1.9534,1.955,1.9682,1.9619,1.9634,1.9642,1.9682,1.9681,1.9704,1.972,1.972,1.9694,1.9739,1.9751,1.9838,1.9893,1.9787,1.9793,2.0067,2.0073,2.0078,2.0156,0,0,0,0,0,0,1.9529,1.9549,1.9592,1.962,1.9638,1.9758,1.9685,1.9685,1.9715,1.9708,1.9741,1.9743,1.9737,1.9828,1.9844,1.99,1.9798,2.0062,2.0069,2.0076,2.0149,2.0164,2.0177,0,0,0,0,0,1.9523,1.9612,1.9595,1.9611,1.9691,1.9762,1.9772,1.9762,1.972,1.9763,1.9772,1.9742,1.9885,1.9838,1.9855,1.9914,2.0058,2.0067,2.0076,2.0142,2.0161,2.0177,0,0,0,0,0,0,1.9592,1.9616,1.9596,1.9698,1.9728,1.9752,1.9806,1.9782,1.9826,1.9817,1.9804,1.9812,1.9902,1.9917,1.9864,2.0022,1.9965,1.9977,2.0009,2.0027,2.0041,2.0035,1.9803,0,0,0,0,0,1.9619,1.9674,1.9692,1.978,1.9795,1.9798,1.9828,1.9818,1.9849,1.9862,1.9877,1.9909,1.996,1.9995,2.0044,2.0151,2.0156,2.0199,2.0214,2.0225,2.0236,2.0291,2.031,2.0109,2.0109,2.0109,0,0,1.9676,1.9696,1.9731,1.9794,1.9816,1.9872,1.9809,1.9873,1.9914,1.9872,1.9953,1.9966,2.0,2.0097,2.014,2.0112,2.0292,2.0237,2.0246,2.025,2.0302,2.0321,2.0338,2.0115,2.0114,2.0113,0,0,1.9807,1.9829,1.9902,1.9925,1.9959,1.996,1.9978,2.0005,2.0011,2.0093,2.0061,2.0111,2.0201,2.0225,2.025,2.0388,2.0361,2.0405,2.0479,2.0532,2.0548,2.0562,2.0609,2.0626,2.0416,2.0416,2.0416,0,1.9874,1.9957,1.9944,2.0008,2.0036,1.9999,2.0073,2.0096,2.0145,2.0165,2.0132,2.0242,2.0263,2.0363,2.0396,2.0418,2.0437,2.04,2.0547,2.056,2.0573,2.0618,2.0636,2.0421,2.042,2.042,2.0419,0,2.0036,2.0094,2.015,2.0195,2.023,2.0299,2.0296,2.0332,2.0318,2.0322,2.0405,2.0428,2.0479,2.0503,2.0491,2.0601,2.0582,2.0549,2.049,2.0597,2.0639,2.0656,2.0428,2.0426,2.0424,2.0423,0,0,2.0214,2.0249,2.027,2.0289,2.0322,2.0367,2.0434,2.0483,2.0513,2.0548,2.0603,2.0678,2.0647,2.0674,2.0665,2.0712,2.0817,2.0673,2.0673,2.0697,2.0937,2.096,2.0981,2.08,2.0803,2.0806,2.0933,0,2.0345,2.046,2.0449,2.0558,2.0611,2.0575,2.0633,2.066,2.0665,2.0711,2.0717,2.0769,2.0725,2.0741,2.0787,2.0795,2.0865,2.0786,2.085,2.0852,2.084,2.1003,2.1028,2.1148,2.095,2.0952,2.0955,0,2.0513,2.0551,2.0665,2.0688,2.071,2.0762,2.0805,2.0849,2.0878,2.0878,2.0908,2.089,2.0956,2.0897,2.0987,2.0933,2.0959,2.0967,2.0971,2.0975,2.0909,2.1009,2.1186,2.1203,2.0981,2.0978,2.0977,0,2.0628,2.0708,2.0786,2.0804,2.0834,2.0871,2.0885,2.091,2.0939,2.0977,2.0995,2.1041,2.1065,2.11,2.1094,2.1052,2.1185,2.1126,2.1186,2.1187,2.1215,2.1213,2.1396,2.1235,2.1235,2.1234,2.1234,0,2.0774,2.0845,2.0838,2.0886,2.0963,2.095,2.1027,2.1037,2.1059,2.1108,2.1081,2.1127,2.1117,2.1163,2.1158,2.1232,2.1244,2.1246,2.1243,2.1247,2.1247,2.1262,2.1253,2.1239,2.1238,2.1237,2.1236,0,2.0916,2.0914,2.0996,2.1016,2.1023,2.1079,2.1097,2.1141,2.1144,2.1205,2.1219,2.1223,2.1275,2.1273,2.1333,2.1329,2.142,2.1409,2.141,2.1407,2.1466,2.146,2.1664,2.1689,2.1514,2.1516,2.1517,0,2.1008,2.1061,2.1087,2.1117,2.1133,2.1182,2.1211,2.12,2.1231,2.1267,2.1307,2.1356,2.1395,2.148,2.1488,2.1533,2.1522,2.159,2.1528,2.1529,2.152,2.1516,2.152,2.1602,2.1604,2.1605,2.1607,0,2.1172,2.1168,2.121,2.1252,2.1287,2.132,2.135,2.1376,2.1368,2.1404,2.1456,2.1486,2.1546,2.1595,2.1637,2.1651,2.1627,2.1626,2.1642,2.1645,2.1643,2.1642,2.1441,2.1621,2.162,2.1619,2.1618,2.1617,2.129,2.1335,2.1359,2.1407,2.1427,2.1455,2.1497,2.1504,2.1547,2.1594,2.1585,2.1643,2.1669,2.1723,2.1741,2.1786,2.1761,2.1785,2.1791,2.1796,2.1802,2.1637,2.1794,2.1793,2.1793,2.1793,2.1792,0,2.1451,2.1464,2.1508,2.1549,2.1586,2.156,2.1591,2.1624,2.1675,2.1701,2.1738,2.1797,2.1844,2.1855,2.19,2.1933,2.1923,2.1945,2.1942,2.1945,2.1822,2.1803,2.1952,2.1952,2.1952,2.1952,2.1952,2.1952,2.1538,2.1611,2.161,2.1692,2.1705,2.1761,2.178,2.1806,2.1826,2.1892,2.193,2.1937,2.1956,2.2001,2.2042,2.2044,2.2061,2.2087,2.2085,2.197,2.1954,2.1938,2.192,2.2091,2.2092,2.2203,2.2204,2.2205]}]]